Location: Chippewa Lake
(41.0698°N, 81.9010°W)
Time: 02:14:18
(UTC+00:00)

Cosmos 1980 Rocket - Pass Details

Date: 09 May 2021
Orbit: 831 x 848 km, 71.0° (Epoch: 24 June)

Event Time Altitude Azimuth Distance (km) Brightness Sun altitude
Exits shadow 08:10:11 14° 163° (SSE) 2,209 4.1 -20.0°
Maximum altitude 08:14:25 34° 104° (ESE) 1,370 3.5 -19.4°
Drops below altitude 10° 08:19:27 10° 42° (NE) 2,470 5.9 -18.8°
Sets 08:22:06 0° 33° (NNE) 3,407 6.9 -18.4°
